EDT,Max TemperatureF,Mean TemperatureF,Min TemperatureF,Max Dew PointF,MeanDew PointF,Min DewpointF,Max Humidity, Mean Humidity, Min Humidity, Max Sea Level PressureIn, Mean Sea Level PressureIn, Min Sea Level PressureIn, Max VisibilityMiles, Mean VisibilityMiles, Min VisibilityMiles, Max Wind SpeedMPH, Mean Wind SpeedMPH, Max Gust SpeedMPH,PrecipitationIn, CloudCover, Events, WindDirDegrees
2013-9-1,89,83,76,76,74,72,94,78,59,29.99,29.96,29.92,10,10,10,12,6,15,0.06,2,Rain-Thunderstorm,159
2013-9-2,90,83,75,77,74,72,94,76,63,30.02,29.97,29.94,10,10,8,20,6,23,0.02,2,Rain-Thunderstorm,178
2013-9-3,89,83,77,77,74,69,94,77,59,30.03,29.97,29.93,10,10,8,16,4,20,0.03,2,Rain-Thunderstorm,167
2013-9-4,92,83,73,76,73,69,94,80,56,30.07,30.02,29.96,10,9,1,31,5,37,1.39,3,Rain-Thunderstorm,81
2013-9-5,93,85,76,79,74,70,94,77,56,30.08,30.03,29.99,10,10,6,21,6,29,0.09,2,Rain-Thunderstorm,55
2013-9-6,91,82,73,77,74,70,94,81,56,30.05,30.00,29.93,10,8,1,33,7,43,0.94,3,Rain-Thunderstorm,62
2013-9-7,90,82,73,74,72,71,94,81,56,30.02,29.97,29.91,10,10,10,26,8,32,0.02,2,Thunderstorm,63
2013-9-8,90,82,73,75,72,71,94,76,56,29.96,29.92,29.86,10,10,10,16,6,18,0.00,2,,38
2013-9-9,93,85,76,74,72,68,94,71,46,30.01,29.96,29.92,10,10,10,15,8,18,0.00,1,,77
2013-9-10,92,84,75,73,70,65,94,69,44,30.06,30.02,29.97,10,10,10,18,9,23,0.00,0,,73
2013-9-11,91,83,75,74,71,68,87,72,50,30.05,30.01,29.97,10,10,10,25,10,32,0.00,1,,85
2013-9-12,89,82,74,74,72,69,94,77,63,30.00,29.95,29.89,10,10,10,18,6,22,T,3,Rain-Thunderstorm,88
2013-9-13,89,81,73,74,72,71,93,76,61,29.90,29.87,29.82,10,10,10,15,4,20,T,1,Thunderstorm,290
2013-9-14,90,83,75,75,72,67,94,73,55,29.96,29.89,29.84,10,10,10,18,5,24,0.00,0,Thunderstorm,297
2013-9-15,94,84,73,75,72,69,94,82,52,30.08,30.01,29.95,10,8,1,36,8,41,1.04,3,Rain-Thunderstorm,79
2013-9-16,91,82,73,76,73,70,94,86,56,30.04,30.01,29.98,10,8,0,33,7,38,1.19,2,Fog-Rain-Thunderstorm,85
2013-9-17,91,83,74,75,73,71,94,85,59,30.04,29.99,29.93,10,9,2,22,8,30,0.15,3,Rain,76
2013-9-18,91,83,74,75,73,71,94,81,56,30.02,29.98,29.94,10,10,7,22,6,29,0.12,3,Rain-Thunderstorm,80
2013-9-19,90,82,74,75,73,72,94,81,56,30.04,29.99,29.96,10,10,10,13,6,16,T,3,Rain-Thunderstorm,95
2013-9-20,90,82,74,73,70,67,93,71,50,30.02,29.96,29.89,10,10,10,13,7,16,0.00,2,Rain,84
2013-9-21,87,79,71,73,70,67,93,72,57,29.93,29.85,29.79,10,10,10,13,7,16,0.00,0,,165
2013-9-22,89,82,75,75,74,72,94,75,59,29.86,29.80,29.77,10,10,10,18,8,24,0.00,1,,196
2013-9-23,83,80,76,77,75,74,100,91,91,29.96,29.91,29.83,10,5,0,16,7,20,3.00,6,Fog-Rain-Thunderstorm,146
2013-9-24,81,77,73,76,74,71,100,91,79,29.97,29.92,29.86,10,7,2,15,7,21,1.98,7,Rain-Thunderstorm,189
2013-9-25,82,77,72,77,72,69,93,89,69,29.95,29.87,29.80,10,6,1,28,9,37,1.92,6,Rain,275
2013-9-26,89,83,76,79,76,72,88,78,65,29.87,29.83,29.80,10,10,9,17,10,31,T,2,Rain,290
2013-9-27,88,80,72,72,70,68,93,77,55,29.95,29.90,29.86,10,10,8,16,8,21,0.00,3,,35
2013-9-28,90,81,72,71,70,65,87,74,46,29.99,29.94,29.90,10,10,10,18,8,24,0.00,2,,55
2013-9-29,90,81,72,70,68,62,93,70,41,29.98,29.94,29.88,10,10,10,13,6,16,0.00,2,,50
2013-9-30,89,80,71,72,70,67,93,74,47,29.98,29.94,29.91,10,10,10,12,6,15,0.00,1,,82